Hourly Data Report for October 02, 2014

All times are specified in Local Standard Time (LST). Add 1 hour to adjust for Daylight Saving Time where and when it is observed.

CHARLOTTETOWN A
PRINCE EDWARD ISLAND

46°17'21.000" N
63°07'09.000" W
48.50 m
8300301
71706
YYG

Download Data

Hourly Data (October 2014)
Hourly Data Report for October 2, 2014
Temp Definition
°C
Dew Point Temp Definition
°C
Rel Hum Definition
%
Wind Dir Definition
10's deg

Wind Spd Definition
km/h
Visibility Definition
km
Stn Press Definition
kPa
Hmdx Definition


Wind Chill Definition


Weather Definition


TIME
00:00 Legend Double Dagger 6.1 5.1 93 2 10 24.1 101.80     LegendNANA
01:00 Legend Double Dagger 6.4 4.9 90 4 15 24.1 101.80     LegendNANA
02:00 Legend Double Dagger 7.0 4.7 85 4 14 24.1 101.76     Mainly Clear
03:00 Legend Double Dagger 6.8 4.5 85 5 14 24.1 101.76     LegendNANA
04:00 Legend Double Dagger 6.7 4.7 87 4 14 24.1 101.77     LegendNANA
05:00 Legend Double Dagger 6.3 4.5 88 3 16 24.1 101.76     Clear
06:00 Legend Double Dagger 7.2 5.0 86 4 14 24.1 101.80     LegendNANA
07:00 Legend Double Dagger 8.6 6.2 85 4 17 24.1 101.87     LegendNANA
08:00 Legend Double Dagger 10.6 6.8 77 4 21 24.1 101.91     Mostly Cloudy
09:00 Legend Double Dagger 12.1 7.5 73 5 24 24.1 101.92     LegendNANA
10:00 Legend Double Dagger 13.4 7.7 68 5 22 24.1 101.89     LegendNANA
11:00 Legend Double Dagger 14.6 8.2 65 5 12 24.1 101.88     Mainly Clear
12:00 Legend Double Dagger 15.2 9.6 69 3 25 24.1 101.85     LegendNANA
13:00 Legend Double Dagger 14.7 10.0 73 2 25 24.1 101.79     LegendNANA
14:00 Legend Double Dagger 14.7 10.6 76 2 30 24.1 101.74     Mainly Clear
15:00 Legend Double Dagger 15.3 10.7 74 4 21 24.1 101.72     LegendNANA
16:00 Legend Double Dagger 14.2 10.1 76 4 21 24.1 101.73     LegendNANA
17:00 Legend Double Dagger 13.1 10.5 84 3 16 24.1 101.73     Mostly Cloudy
18:00 Legend Double Dagger 11.3 8.4 82 5 13 24.1 101.78     LegendNANA
19:00 Legend Double Dagger 10.1 7.5 84 6 12 24.1 101.82     LegendNANA
20:00 Legend Double Dagger 9.9 7.2 83 7 12 24.1 101.83     Mainly Clear
21:00 Legend Double Dagger 8.6 6.2 85 6 12 24.1 101.84     LegendNANA
22:00 Legend Double Dagger 8.6 6.1 84 7 14 24.1 101.79     LegendNANA
23:00 Legend Double Dagger 7.9 5.9 87 7 14 24.1 101.75     Mainly Clear

Notes on Data Quality.

Legend

  • E = Estimated
  • M = Missing
  • NA = Not Available
  • ‡ = Partner data that is not subject to review by the National Climate Archives
Date modified: